Location: Unspecified
(0.0000°N, 0.0000°E)
Time: 06:59:49
(UTC+00:00)

X-37B - Pass Details

Date: 23 July 2021
Orbit: 383 x 392 km, 45.0° (Epoch: 01 July)

Event Time Altitude Azimuth Distance (km) Brightness Sun altitude
Exits shadow 04:09:30 19° 71° (ENE) 978 3.4 -27.3°
Drops below altitude 10° 04:10:40 10° 61° (ENE) 1,407 4.4 -27.1°
Sets 04:12:48 0° 53° (NE) 2,260 5.7 -26.6°
